N62RP WADD-WADS

Flight info

Callsign N62RP
Flight time 1h 1m
Altitude 5000
Route SBECH DCT PHARR DCT PATIN DCT GILI DCT BAYAN DCT SULAT DCT TSARA
Aircraft DA62/L-SDFGRY/C

Departure

Time 2026-04-17 05:55
Airport Denpasar I Gusti Ngurah Rai International Airport (WADD)

Arrival

Time 2026-04-17 06:56
Airport Sultan Muhammad Kaharuddin III Airport (WADS)
Time Latitude Longitude Altitude Speed Heading
2026-04-17 05:42 -8.75090 115.16687 12 ft 0 kts 179°
2026-04-17 05:50 -8.75090 115.16686 12 ft 0 kts 186°
2026-04-17 05:50 -8.75093 115.16682 12 ft 1 kts 282°
2026-04-17 05:51 -8.75078 115.16681 12 ft 3 kts 10°
2026-04-17 05:51 -8.75035 115.16684 12 ft 8 kts 356°
2026-04-17 05:51 -8.75009 115.16661 12 ft 0 kts 266°
2026-04-17 05:51 -8.75010 115.16647 12 ft 3 kts 266°
2026-04-17 05:52 -8.75011 115.16621 12 ft 0 kts 268°
2026-04-17 05:53 -8.75011 115.16601 12 ft 7 kts 268°
2026-04-17 05:53 -8.75012 115.16518 12 ft 14 kts 285°
2026-04-17 05:53 -8.74959 115.16475 12 ft 0 kts 357°
2026-04-17 05:53 -8.74953 115.16475 12 ft 3 kts 356°
2026-04-17 05:54 -8.74905 115.16473 13 ft 10 kts 359°
2026-04-17 05:54 -8.74850 115.16508 13 ft 12 kts 87°
2026-04-17 05:54 -8.74845 115.16637 13 ft 49 kts 90°
2026-04-17 05:54 -8.74814 115.17143 111 ft 78 kts 94°
2026-04-17 05:55 -8.74812 115.17705 311 ft 88 kts 96°
2026-04-17 05:55 -8.74784 115.18353 568 ft 96 kts 72°
2026-04-17 05:55 -8.74409 115.18913 889 ft 98 kts 59°
2026-04-17 05:55 -8.74005 115.19460 1219 ft 96 kts 57°
2026-04-17 05:56 -8.73554 115.19979 1497 ft 101 kts 53°
2026-04-17 05:56 -8.73052 115.20541 1716 ft 110 kts 50°
2026-04-17 05:56 -8.72552 115.21036 2072 ft 105 kts 49°
2026-04-17 05:56 -8.72040 115.21574 2358 ft 107 kts 48°
2026-04-17 05:57 -8.71508 115.22082 2671 ft 107 kts 47°
2026-04-17 05:57 -8.70911 115.22624 2802 ft 123 kts 45°
2026-04-17 05:57 -8.70227 115.23220 2893 ft 137 kts 43°
2026-04-17 05:57 -8.69463 115.23869 2944 ft 148 kts 43°
2026-04-17 05:58 -8.68644 115.24546 2975 ft 157 kts 41°
2026-04-17 05:58 -8.68098 115.24982 2997 ft 159 kts 45°
2026-04-17 05:58 -8.67316 115.25757 2999 ft 159 kts 47°
2026-04-17 05:59 -8.66033 115.27431 2997 ft 157 kts 54°
2026-04-17 05:59 -8.65354 115.28297 3019 ft 155 kts 53°
2026-04-17 05:59 -8.64689 115.29182 2961 ft 158 kts 56°
2026-04-17 05:59 -8.64032 115.30064 2972 ft 157 kts 54°
2026-04-17 06:00 -8.63375 115.30948 2969 ft 156 kts 56°
2026-04-17 06:00 -8.62737 115.31833 2961 ft 156 kts 57°
2026-04-17 06:00 -8.62149 115.32764 2953 ft 155 kts 60°
2026-04-17 06:00 -8.61575 115.33688 2947 ft 154 kts 59°
2026-04-17 06:01 -8.60969 115.34594 2935 ft 155 kts 57°
2026-04-17 06:01 -8.60386 115.35510 2944 ft 154 kts 61°
2026-04-17 06:01 -8.59843 115.36444 2938 ft 155 kts 61°
2026-04-17 06:01 -8.59252 115.37366 2942 ft 155 kts 59°
2026-04-17 06:02 -8.58700 115.38302 2935 ft 155 kts 63°
2026-04-17 06:02 -8.58169 115.39250 2957 ft 154 kts 63°
2026-04-17 06:02 -8.57655 115.40192 2962 ft 154 kts 64°
2026-04-17 06:02 -8.57161 115.41168 2968 ft 154 kts 64°
2026-04-17 06:03 -8.56663 115.42134 2974 ft 154 kts 64°
2026-04-17 06:03 -8.56158 115.43100 2963 ft 156 kts 64°
2026-04-17 06:03 -8.55646 115.44053 2979 ft 155 kts 63°
2026-04-17 06:03 -8.55114 115.45010 2992 ft 156 kts 61°
2026-04-17 06:04 -8.54511 115.45937 2982 ft 157 kts 58°
2026-04-17 06:04 -8.53885 115.46831 3004 ft 156 kts 57°
2026-04-17 06:04 -8.53285 115.47765 2984 ft 158 kts 60°
2026-04-17 06:04 -8.52752 115.48738 2990 ft 157 kts 63°
2026-04-17 06:05 -8.52209 115.49721 2794 ft 162 kts 63°
2026-04-17 06:05 -8.51669 115.50722 2597 ft 162 kts 63°
2026-04-17 06:05 -8.51136 115.51713 2432 ft 159 kts 64°
2026-04-17 06:05 -8.50605 115.52691 2271 ft 157 kts 64°
2026-04-17 06:06 -8.50096 115.53666 2107 ft 156 kts 64°
2026-04-17 06:06 -8.49579 115.54620 1989 ft 153 kts 63°
2026-04-17 06:06 -8.49069 115.55553 1952 ft 150 kts 63°
2026-04-17 06:06 -8.48586 115.56500 1930 ft 151 kts 65°
2026-04-17 06:07 -8.48119 115.57450 1952 ft 148 kts 65°
2026-04-17 06:07 -8.47640 115.58366 1977 ft 149 kts 63°
2026-04-17 06:07 -8.47119 115.59287 1977 ft 150 kts 62°
2026-04-17 06:07 -8.46583 115.60192 1984 ft 151 kts 61°
2026-04-17 06:08 -8.46039 115.61096 1993 ft 150 kts 61°
2026-04-17 06:08 -8.45493 115.62015 1997 ft 150 kts 61°
2026-04-17 06:08 -8.44970 115.62919 1990 ft 150 kts 61°
2026-04-17 06:08 -8.44429 115.63819 2030 ft 148 kts 60°
2026-04-17 06:09 -8.43881 115.64697 2148 ft 142 kts 58°
2026-04-17 06:09 -8.43343 115.65514 2319 ft 140 kts 58°
2026-04-17 06:09 -8.42852 115.66335 2555 ft 137 kts 62°
2026-04-17 06:09 -8.42385 115.67171 2796 ft 135 kts 63°
2026-04-17 06:10 -8.41969 115.68017 2960 ft 139 kts 72°
2026-04-17 06:10 -8.41757 115.69022 2871 ft 151 kts 79°
2026-04-17 06:10 -8.41530 115.70081 2829 ft 156 kts 77°
2026-04-17 06:10 -8.41267 115.71131 2862 ft 153 kts 77°
2026-04-17 06:11 -8.40999 115.72169 2904 ft 152 kts 76°
2026-04-17 06:11 -8.40727 115.73212 2910 ft 153 kts 77°
2026-04-17 06:11 -8.40464 115.74251 2934 ft 152 kts 77°
2026-04-17 06:11 -8.40202 115.75285 2956 ft 152 kts 77°
2026-04-17 06:12 -8.39945 115.76327 2953 ft 153 kts 77°
2026-04-17 06:12 -8.39691 115.77366 2970 ft 153 kts 77°
2026-04-17 06:12 -8.39435 115.78420 2956 ft 155 kts 77°
2026-04-17 06:12 -8.39182 115.79479 2966 ft 154 kts 77°
2026-04-17 06:13 -8.38936 115.80547 2970 ft 155 kts 78°
2026-04-17 06:13 -8.38708 115.81597 2979 ft 155 kts 79°
2026-04-17 06:13 -8.38487 115.82673 2976 ft 155 kts 79°
2026-04-17 06:13 -8.38260 115.83746 2976 ft 156 kts 77°
2026-04-17 06:14 -8.37992 115.84807 2959 ft 157 kts 77°
2026-04-17 06:14 -8.37722 115.85880 2957 ft 157 kts 77°
2026-04-17 06:14 -8.37460 115.86948 2955 ft 156 kts 77°
2026-04-17 06:14 -8.37195 115.87997 2961 ft 155 kts 77°
2026-04-17 06:15 -8.36921 115.89073 2946 ft 156 kts 77°
2026-04-17 06:15 -8.36659 115.90137 2930 ft 157 kts 77°
2026-04-17 06:15 -8.36404 115.91197 2955 ft 154 kts 77°
2026-04-17 06:15 -8.36155 115.92253 2941 ft 155 kts 78°
2026-04-17 06:16 -8.35911 115.93322 2926 ft 156 kts 78°
2026-04-17 06:16 -8.35678 115.94394 2935 ft 155 kts 79°
2026-04-17 06:16 -8.35461 115.95460 2924 ft 156 kts 79°
2026-04-17 06:16 -8.35249 115.96535 2931 ft 155 kts 79°
2026-04-17 06:17 -8.35039 115.97603 2931 ft 155 kts 79°
2026-04-17 06:17 -8.34824 115.98681 2915 ft 156 kts 79°
2026-04-17 06:17 -8.34588 115.99765 2910 ft 156 kts 78°
2026-04-17 06:17 -8.34335 116.00829 2913 ft 156 kts 78°
2026-04-17 06:18 -8.34072 116.01885 2931 ft 155 kts 77°
2026-04-17 06:18 -8.33712 116.02901 2950 ft 155 kts 63°
2026-04-17 06:18 -8.33174 116.03872 2939 ft 156 kts 63°
2026-04-17 06:18 -8.32660 116.04823 2941 ft 156 kts 64°
2026-04-17 06:19 -8.32146 116.05808 2929 ft 157 kts 64°
2026-04-17 06:19 -8.31644 116.06776 2942 ft 156 kts 64°
2026-04-17 06:19 -8.31151 116.07761 2922 ft 157 kts 65°
2026-04-17 06:19 -8.30679 116.08749 2932 ft 156 kts 66°
2026-04-17 06:20 -8.30221 116.09759 2927 ft 157 kts 67°
2026-04-17 06:20 -8.29808 116.10779 2974 ft 157 kts 71°
2026-04-17 06:20 -8.29428 116.11814 2969 ft 161 kts 71°
2026-04-17 06:20 -8.29040 116.12877 2979 ft 162 kts 69°
2026-04-17 06:21 -8.28551 116.13912 3014 ft 162 kts 65°
2026-04-17 06:21 -8.28035 116.14935 3040 ft 163 kts 65°
2026-04-17 06:21 -8.27543 116.15953 3037 ft 165 kts 65°
2026-04-17 06:21 -8.27013 116.17001 2979 ft 169 kts 64°
2026-04-17 06:22 -8.26466 116.18059 2970 ft 169 kts 64°
2026-04-17 06:22 -8.25914 116.19110 2964 ft 169 kts 64°
2026-04-17 06:22 -8.25352 116.20141 2966 ft 168 kts 63°
2026-04-17 06:22 -8.24767 116.21181 2954 ft 169 kts 61°
2026-04-17 06:23 -8.24177 116.22194 2960 ft 168 kts 61°
2026-04-17 06:23 -8.23573 116.23206 2949 ft 167 kts 61°
2026-04-17 06:23 -8.23086 116.24267 2965 ft 165 kts 73°
2026-04-17 06:23 -8.22737 116.25367 2933 ft 167 kts 73°
2026-04-17 06:24 -8.22399 116.26499 2930 ft 165 kts 75°
2026-04-17 06:24 -8.22096 116.27605 2967 ft 163 kts 76°
2026-04-17 06:24 -8.21764 116.28722 2939 ft 166 kts 75°
2026-04-17 06:24 -8.21441 116.29828 2961 ft 164 kts 76°
2026-04-17 06:25 -8.21134 116.30930 2959 ft 165 kts 75°
2026-04-17 06:25 -8.20874 116.32068 2955 ft 165 kts 83°
2026-04-17 06:25 -8.20846 116.33212 2954 ft 164 kts 95°
2026-04-17 06:25 -8.21009 116.34360 2955 ft 163 kts 99°
2026-04-17 06:26 -8.21175 116.35493 2968 ft 163 kts 98°
2026-04-17 06:26 -8.21365 116.36616 2976 ft 163 kts 101°
2026-04-17 06:26 -8.21598 116.37753 2957 ft 164 kts 103°
2026-04-17 06:26 -8.21856 116.38876 2952 ft 164 kts 104°
2026-04-17 06:27 -8.22130 116.39979 2975 ft 163 kts 105°
2026-04-17 06:27 -8.22439 116.41087 2971 ft 163 kts 106°
2026-04-17 06:27 -8.22744 116.42179 2972 ft 163 kts 105°
2026-04-17 06:27 -8.23037 116.43291 2955 ft 163 kts 105°
2026-04-17 06:28 -8.23357 116.44387 2964 ft 162 kts 107°
2026-04-17 06:28 -8.23690 116.45473 2956 ft 163 kts 107°
2026-04-17 06:28 -8.24035 116.46565 2952 ft 162 kts 108°
2026-04-17 06:28 -8.24410 116.47649 2946 ft 163 kts 110°
2026-04-17 06:29 -8.24809 116.48726 2947 ft 163 kts 111°
2026-04-17 06:29 -8.25213 116.49781 2949 ft 163 kts 112°
2026-04-17 06:29 -8.25651 116.50851 2946 ft 163 kts 110°
2026-04-17 06:29 -8.26009 116.51943 2938 ft 164 kts 107°
2026-04-17 06:30 -8.26307 116.53056 2928 ft 163 kts 102°
2026-04-17 06:30 -8.26495 116.54195 2936 ft 163 kts 97°
2026-04-17 06:30 -8.26613 116.55328 2926 ft 162 kts 97°
2026-04-17 06:30 -8.26756 116.56454 2922 ft 162 kts 98°
2026-04-17 06:31 -8.26908 116.57586 2901 ft 163 kts 99°
2026-04-17 06:31 -8.27089 116.58714 2934 ft 161 kts 101°
2026-04-17 06:31 -8.27344 116.59824 2916 ft 163 kts 106°
2026-04-17 06:31 -8.27645 116.60926 2912 ft 163 kts 105°
2026-04-17 06:32 -8.27915 116.62028 2909 ft 159 kts 102°
2026-04-17 06:32 -8.28169 116.63108 2794 ft 160 kts 105°
2026-04-17 06:32 -8.28515 116.64189 2679 ft 158 kts 107°
2026-04-17 06:32 -8.28801 116.65256 2695 ft 151 kts 103°
2026-04-17 06:33 -8.29016 116.66270 2769 ft 145 kts 102°
2026-04-17 06:33 -8.29199 116.67283 2769 ft 145 kts 99°
2026-04-17 06:33 -8.29325 116.68295 2768 ft 146 kts 97°
2026-04-17 06:33 -8.29487 116.69293 2783 ft 144 kts 104°
2026-04-17 06:34 -8.29767 116.70280 2807 ft 142 kts 106°
2026-04-17 06:34 -8.30059 116.71217 2843 ft 137 kts 109°
2026-04-17 06:34 -8.30351 116.72109 2872 ft 132 kts 108°
2026-04-17 06:34 -8.30615 116.72984 2883 ft 130 kts 106°
2026-04-17 06:35 -8.30829 116.73862 2925 ft 127 kts 95°
2026-04-17 06:35 -8.30764 116.74757 2961 ft 126 kts 87°
2026-04-17 06:35 -8.30830 116.75635 2961 ft 127 kts 99°
2026-04-17 06:35 -8.30967 116.76524 2969 ft 128 kts 99°
2026-04-17 06:36 -8.31081 116.77409 2995 ft 127 kts 96°
2026-04-17 06:36 -8.31137 116.78312 3015 ft 127 kts 92°
2026-04-17 06:36 -8.31137 116.79196 3040 ft 127 kts 91°
2026-04-17 06:36 -8.31152 116.80104 3048 ft 128 kts 97°
2026-04-17 06:37 -8.31266 116.80984 3081 ft 126 kts 99°
2026-04-17 06:37 -8.31397 116.81885 3045 ft 130 kts 99°
2026-04-17 06:37 -8.31544 116.82781 3055 ft 129 kts 101°
2026-04-17 06:37 -8.31688 116.83678 3062 ft 129 kts 99°
2026-04-17 06:38 -8.31787 116.84586 3082 ft 128 kts 96°
2026-04-17 06:38 -8.31856 116.85492 3090 ft 129 kts 95°
2026-04-17 06:38 -8.31899 116.86394 3083 ft 130 kts 93°
2026-04-17 06:38 -8.31949 116.87321 3048 ft 133 kts 97°
2026-04-17 06:39 -8.32042 116.88251 3058 ft 131 kts 95°
2026-04-17 06:39 -8.32095 116.89172 3038 ft 133 kts 94°
2026-04-17 06:39 -8.32136 116.90104 3052 ft 131 kts 94°
2026-04-17 06:39 -8.32160 116.91032 2999 ft 135 kts 92°
2026-04-17 06:40 -8.32167 116.91976 2992 ft 134 kts 91°
2026-04-17 06:40 -8.32166 116.92921 2975 ft 134 kts 91°
2026-04-17 06:40 -8.32191 116.93861 2962 ft 133 kts 94°
2026-04-17 06:40 -8.32234 116.94793 2947 ft 133 kts 93°
2026-04-17 06:41 -8.32268 116.95734 2919 ft 134 kts 93°
2026-04-17 06:41 -8.32299 116.96662 2900 ft 134 kts 93°
2026-04-17 06:41 -8.32333 116.97607 2887 ft 133 kts 93°
2026-04-17 06:41 -8.32365 116.98548 2863 ft 134 kts 93°
2026-04-17 06:42 -8.32388 116.99486 2855 ft 133 kts 94°
2026-04-17 06:42 -8.32460 117.00400 2844 ft 132 kts 96°
2026-04-17 06:42 -8.32538 117.01341 2831 ft 132 kts 96°
2026-04-17 06:42 -8.32636 117.02261 2810 ft 132 kts 98°
2026-04-17 06:43 -8.32761 117.03182 2798 ft 132 kts 99°
2026-04-17 06:43 -8.32905 117.04097 2778 ft 132 kts 100°
2026-04-17 06:43 -8.33056 117.05000 2800 ft 130 kts 100°
2026-04-17 06:43 -8.33200 117.05906 2796 ft 130 kts 98°
2026-04-17 06:44 -8.33326 117.06812 2817 ft 128 kts 98°
2026-04-17 06:44 -8.33440 117.07710 2834 ft 127 kts 98°
2026-04-17 06:44 -8.33542 117.08576 2879 ft 125 kts 97°
2026-04-17 06:44 -8.33627 117.09462 2894 ft 125 kts 96°
2026-04-17 06:45 -8.33690 117.10339 2909 ft 126 kts 95°
2026-04-17 06:45 -8.33760 117.11221 2917 ft 126 kts 96°
2026-04-17 06:45 -8.33881 117.12097 2950 ft 124 kts 101°
2026-04-17 06:45 -8.34073 117.12953 2924 ft 127 kts 105°
2026-04-17 06:46 -8.34315 117.13811 2953 ft 125 kts 109°
2026-04-17 06:46 -8.34613 117.14652 2940 ft 127 kts 112°
2026-04-17 06:46 -8.34976 117.15469 2931 ft 129 kts 116°
2026-04-17 06:46 -8.35393 117.16268 2949 ft 128 kts 118°
2026-04-17 06:47 -8.35828 117.17053 2950 ft 128 kts 118°
2026-04-17 06:47 -8.36271 117.17881 2814 ft 137 kts 117°
2026-04-17 06:47 -8.36726 117.18726 2644 ft 144 kts 117°
2026-04-17 06:47 -8.37201 117.19617 2503 ft 140 kts 117°
2026-04-17 06:48 -8.37656 117.20465 2335 ft 139 kts 117°
2026-04-17 06:48 -8.38156 117.21311 2119 ft 141 kts 120°
2026-04-17 06:48 -8.38644 117.22164 1952 ft 138 kts 117°
2026-04-17 06:48 -8.39109 117.23021 1740 ft 138 kts 116°
2026-04-17 06:49 -8.39532 117.23868 1619 ft 134 kts 115°
2026-04-17 06:49 -8.39939 117.24735 1462 ft 134 kts 110°
2026-04-17 06:49 -8.40245 117.25608 1375 ft 129 kts 108°
2026-04-17 06:49 -8.40533 117.26456 1302 ft 127 kts 108°
2026-04-17 06:50 -8.40818 117.27306 1240 ft 127 kts 108°
2026-04-17 06:50 -8.41105 117.28133 1206 ft 125 kts 108°
2026-04-17 06:50 -8.41387 117.28960 1174 ft 123 kts 108°
2026-04-17 06:50 -8.41691 117.29778 1128 ft 122 kts 110°
2026-04-17 06:51 -8.41978 117.30572 1116 ft 121 kts 109°
2026-04-17 06:51 -8.42267 117.31373 1099 ft 121 kts 109°
2026-04-17 06:51 -8.42557 117.32175 1127 ft 121 kts 108°
2026-04-17 06:51 -8.42840 117.32985 1138 ft 123 kts 108°
2026-04-17 06:52 -8.43085 117.33810 1137 ft 125 kts 103°
2026-04-17 06:52 -8.43298 117.34666 1140 ft 125 kts 103°
2026-04-17 06:52 -8.43496 117.35500 1231 ft 120 kts 103°
2026-04-17 06:52 -8.43740 117.36320 1186 ft 126 kts 112°
2026-04-17 06:53 -8.44208 117.37080 1136 ft 130 kts 123°
2026-04-17 06:53 -8.44774 117.37792 1011 ft 127 kts 136°
2026-04-17 06:53 -8.45437 117.38332 823 ft 118 kts 138°
2026-04-17 06:53 -8.45755 117.39040 813 ft 115 kts 80°
2026-04-17 06:54 -8.45196 117.39598 808 ft 125 kts 13°
2026-04-17 06:54 -8.44443 117.39204 855 ft 135 kts 296°
2026-04-17 06:54 -8.44665 117.38364 888 ft 132 kts 212°
2026-04-17 06:54 -8.45524 117.38425 744 ft 133 kts 139°
2026-04-17 06:55 -8.46228 117.39000 541 ft 118 kts 136°
2026-04-17 06:55 -8.46800 117.39492 468 ft 97 kts 137°
2026-04-17 06:55 -8.47298 117.39890 351 ft 85 kts 136°
2026-04-17 06:55 -8.47750 117.40267 229 ft 82 kts 136°
2026-04-17 06:56 -8.48188 117.40634 101 ft 80 kts 136°
2026-04-17 06:56 -8.48554 117.40943 58 ft 55 kts 138°
2026-04-17 06:56 -8.48801 117.41147 59 ft 37 kts 150°
2026-04-17 06:56 -8.48960 117.41281 61 ft 18 kts 133°
2026-04-17 06:57 -8.48944 117.41338 62 ft 6 kts 50°
2026-04-17 06:57 -8.48918 117.41375 63 ft 10 kts 82°
2026-04-17 06:57 -8.48983 117.41433 64 ft 14 kts 140°
2026-04-17 06:57 -8.48994 117.41445 64 ft 6 kts 286°
2026-04-17 06:58 -8.48950 117.41406 64 ft 8 kts 319°
2026-04-17 06:58 -8.48915 117.41380 63 ft 4 kts 359°
2026-04-17 06:58 -8.48901 117.41389 63 ft 2 kts 50°
2026-04-17 06:58 -8.48889 117.41405 63 ft 3 kts 51°
2026-04-17 06:59 -8.48881 117.41421 64 ft 2 kts 153°
2026-04-17 06:59 -8.48883 117.41421 64 ft 0 kts 192°